Location: Recife
(8.0585°S, 34.8848°W)
Time: 10:24:29
(UTC-03:00)

Courier 1B Rocket - Pass Details

Date: 23 April 2026
Orbit: 920 x 1201 km, 28.2° (Epoch: 13 May)

Event Time Altitude Azimuth Distance (km) Brightness Sun altitude
Rises 06:05:37 0° 230° (SW) 3,592 7.4 9.7°
Reaches altitude 10° 06:10:23 10° 199° (SSW) 2,695 7.0 10.9°
Maximum altitude 06:12:34 12° 179° (S) 2,598 7.2 11.4°
Drops below altitude 10° 06:14:48 10° 159° (SSE) 2,752 7.5 11.9°
Sets 06:19:50 0° 128° (SE) 3,779 8.6 13.1°
